Location: Sundre
(51.7972°N, 114.6405°W)
Time: 00:26:25
(UTC-07:00)

TIGRISAT - Pass Details

Date: 25 January 2020
Orbit: 605 x 690 km, 97.7° (Epoch: 20 February)

Event Time Altitude Azimuth Distance (km) Brightness Sun altitude
Rises 07:46:13 0° 152° (SSE) 2,924 ? -6.6°
Reaches altitude 10° 07:48:28 10° 148° (SSE) 2,007 ? -6.3°
Maximum altitude 07:52:43 55° 71° (ENE) 750 ? -5.7°
Drops below altitude 10° 07:56:55 10° 354° (N) 1,982 ? -5.1°
Sets 07:59:07 0° 350° (N) 2,884 ? -4.8°
